Location: Forli
(44.2227°N, 12.0407°E)
Time: 14:45:05
(UTC+02:00)

UWE-3 - Pass Details

Date: 26 April 2026
Orbit: 542 x 613 km, 97.9° (Epoch: 10 May)

Event Time Altitude Azimuth Distance (km) Brightness Sun altitude
Rises 04:14:23 0° 11° (N) 2,719 ? -18.7°
Reaches altitude 10° 04:16:31 10° 10° (N) 1,817 ? -18.4°
Maximum altitude 04:20:26 75° 285° (WNW) 566 ? -17.9°
Enters shadow 04:21:48 39° 208° (SSW) 828 ? -17.7°
